Weather History for Pontiac, MI

Change the Weather History Date:

Tuesday, June 18, 2013

  Actual Average Record
Temperature  
Mean Temperature 62 °F -  
Max Temperature 70 °F 77 °F 93 °F (2007)
Min Temperature 54 °F 57 °F 45 °F (1999)
Degree Days  
Heating Degree Days 4    
Growing Degree Days 12 (Base 50)    
Moisture  
Dew Point 47 °F    
Average Humidity 61    
Maximum Humidity 93    
Minimum Humidity 36    
Precipitation  
Precipitation 0.02 in - - ()
Sea Level Pressure  
Sea Level Pressure 30.00 in    
Wind  
Wind Speed 10 mph (NNE)    
Max Wind Speed 18 mph    
Max Gust Speed 33 mph    
Visibility 10 miles    
Events      
Averages and records for this station are not official NWS values.
T = Trace of Precipitation, MM = Missing Value Source: NWS Daily Summary

Daily Weather History Graph

Daily Weather History Graph

Search for Another Location

Airport:

Trip Planner

Search our weather history database for the weather conditions in past years. The results will help you decide how hot, cold, wet, or windy it might be!

Date:

Astronomy

Jun. 18, 2013 Rise Set
Actual Time 5:55 AM EDT 9:14 PM EDT
Civil Twilight 5:20 AM EDT 9:49 PM EDT
Nautical Twilight 4:34 AM EDT 10:35 PM EDT
Astronomical Twilight 3:38 AM EDT 11:31 PM EDT
Moon 3:52 PM EDT (6/18) 2:09 AM EDT (6/18)
Length of Visible Light 16h 29m
Length of Day
15h 19m
Waxing Gibbous, 70% of the Moon is Illuminated
Jun 18
Waxing Gibbous
Jun 23
Full
Jun 30
Last Quarter
Jul 8
New
Jul 15
First Quarter

Hourly Weather History & Observations

Time (EDT) Temp. Dew Point Humidity Pressure Visibility Wind Dir Wind Speed Gust Speed Precip Events Conditions
12:53 AM 61.0 °F 55.9 °F 83% 29.97 in 10.0 mi West 13.8 mph - N/A   Overcast
1:53 AM 60.1 °F 57.0 °F 90% 29.91 in 10.0 mi NNE 5.8 mph - 0.02 in   Mostly Cloudy
2:53 AM 57.0 °F 55.0 °F 93% 29.90 in 10.0 mi NNE 6.9 mph - N/A   Clear
3:53 AM 55.9 °F 53.1 °F 90% 29.92 in 10.0 mi NNE 4.6 mph - N/A   Clear
4:53 AM 55.0 °F 52.0 °F 89% 29.93 in 10.0 mi NNE 6.9 mph - N/A   Clear
5:53 AM 54.0 °F 50.0 °F 86% 29.94 in 10.0 mi NNE 8.1 mph - N/A   Scattered Clouds
6:53 AM 54.0 °F 48.9 °F 83% 29.96 in 10.0 mi NNE 11.5 mph - N/A   Partly Cloudy
7:53 AM 57.0 °F 48.9 °F 74% 29.97 in 10.0 mi NNE 9.2 mph - N/A   Partly Cloudy
8:53 AM 61.0 °F 48.9 °F 64% 29.99 in 10.0 mi NE 9.2 mph - N/A   Scattered Clouds
9:53 AM 63.0 °F 50.0 °F 63% 30.01 in 10.0 mi NE 9.2 mph 33.4 mph N/A   Mostly Cloudy
10:53 AM 64.9 °F 51.1 °F 61% 30.01 in 10.0 mi NE 10.4 mph - N/A   Scattered Clouds
11:53 AM 66.0 °F 50.0 °F 56% 30.01 in 10.0 mi NNE 12.7 mph - N/A   Partly Cloudy
12:53 PM 68.0 °F 50.0 °F 52% 30.01 in 10.0 mi NNE 16.1 mph 20.7 mph N/A   Partly Cloudy
1:53 PM 69.1 °F 46.0 °F 44% 30.02 in 10.0 mi NNE 18.4 mph - N/A   Scattered Clouds
2:53 PM 69.1 °F 45.0 °F 42% 30.02 in 10.0 mi NNE 13.8 mph - N/A   Scattered Clouds
3:53 PM 69.1 °F 42.1 °F 38% 30.03 in 10.0 mi North 11.5 mph 18.4 mph N/A   Scattered Clouds
4:53 PM 69.1 °F 41.0 °F 36% 30.02 in 10.0 mi NE 11.5 mph 18.4 mph N/A   Scattered Clouds
5:53 PM 68.0 °F 42.1 °F 39% 30.03 in 10.0 mi NE 10.4 mph - N/A   Scattered Clouds
6:53 PM 66.9 °F 42.1 °F 40% 30.03 in 10.0 mi NNE 11.5 mph - N/A   Partly Cloudy
7:53 PM 64.9 °F 39.9 °F 40% 30.05 in 10.0 mi North 12.7 mph - N/A   Scattered Clouds
8:53 PM 62.1 °F 37.9 °F 41% 30.05 in 10.0 mi NNE 8.1 mph - N/A   Scattered Clouds
9:53 PM 59.0 °F 37.9 °F 46% 30.06 in 10.0 mi NNE 8.1 mph - N/A   Partly Cloudy
10:53 PM 57.0 °F 39.0 °F 51% 30.09 in 10.0 mi NE 5.8 mph - N/A   Clear
11:53 PM 54.0 °F 39.9 °F 59% 30.09 in 10.0 mi NE 3.5 mph - N/A   Clear